GW2066 Weather Reports


Display with metric or nautical units.
time (UTC)temp
F
wind
direction
speed
MPH
gust
MPH
rain 1hr
in
rain 24hr
in
rain mn
in
humidity
%
barometer
mb
20260509112614 53 266 4.0 6.0 0.00 0.00 0.00 89 1003.5
20260509112112 53 214 5.0 7.0 0.00 0.00 0.00 89 1003.2
20260509111609 53 213 2.0 2.0 0.00 0.00 0.00 89 1003.1
20260509111106 53 229 5.0 6.0 0.00 0.00 0.00 89 1003.3
20260509110603 53 247 3.0 3.0 0.00 0.00 0.00 89 1003.2
20260509110100 53 235 4.0 6.0 0.00 0.00 0.00 89 1003.3
20260509105558 53 244 3.0 6.0 0.00 0.00 0.00 89 1003.2
20260509105055 53 215 3.0 6.0 0.00 0.00 0.00 89 1003.0
20260509104552 53 232 4.0 6.0 0.00 0.00 0.00 89 1003.3
20260509104049 53 230 2.0 5.0 0.00 0.00 0.00 89 1003.2
20260509103547 53 215 3.0 5.0 0.00 0.00 0.00 89 1003.2
20260509103045 53 222 3.0 5.0 0.00 0.00 0.00 88 1003.1
20260509102542 53 229 3.0 3.0 0.00 0.00 0.00 88 1003.3
20260509102038 53 241 3.0 3.0 0.00 0.00 0.00 88 1003.3
20260509101535 53 226 2.0 3.0 0.00 0.00 0.00 88 1003.4
20260509101032 53 227 1.0 1.0 0.00 0.00 0.00 88 1003.2
20260509100529 54 242 4.0 5.0 0.00 0.00 0.00 87 1003.5
20260509100026 54 228 4.0 5.0 0.00 0.00 0.00 87 1003.7
20260509095523 54 265 2.0 3.0 0.00 0.00 0.00 87 1003.5
20260509095020 54 225 4.0 5.0 0.00 0.00 0.00 88 1003.4
20260509094516 54 251 3.0 3.0 0.00 0.00 0.00 87 1003.5
20260509094014 54 209 5.0 7.0 0.00 0.00 0.00 87 1003.7
20260509093512 54 230 3.0 3.0 0.00 0.00 0.00 87 1003.7
20260509093009 54 237 2.0 3.0 0.00 0.00 0.00 87 1003.6
20260509092507 54 197 3.0 3.0 0.00 0.00 0.00 87 1003.6
20260509092005 54 202 1.0 2.0 0.00 0.00 0.00 87 1004.0
20260509091502 54 238 3.0 6.0 0.00 0.00 0.00 87 1004.0
20260509090959 54 218 6.0 7.0 0.00 0.00 0.00 87 1003.9
20260509090456 54 243 5.0 6.0 0.00 0.00 0.00 86 1004.1
20260509085953 54 224 4.0 6.0 0.00 0.00 0.00 86 1004.1
20260509085450 54 228 5.0 7.0 0.00 0.00 0.00 86 1004.2
20260509084946 54 228 3.0 5.0 0.00 0.00 0.00 86 1004.2
20260509084443 54 242 3.0 3.0 0.00 0.00 0.00 86 1004.1
20260509083941 54 224 4.0 5.0 0.00 0.00 0.00 86 1003.9
20260509083438 54 265 3.0 3.0 0.00 0.00 0.00 86 1004.1
20260509082929 54 227 3.0 5.0 0.00 0.00 0.00 85 1004.1
20260509082426 54 222 4.0 6.0 0.00 0.00 0.00 85 1004.0
20260509081923 54 225 5.0 7.0 0.00 0.00 0.00 85 1004.0
20260509081420 54 229 4.0 5.0 0.00 0.00 0.00 85 1003.7
20260509080917 54 227 5.0 8.0 0.00 0.00 0.00 84 1003.9
20260509080415 54 213 7.0 8.0 0.00 0.00 0.00 84 1004.0
20260509075913 54 234 1.0 1.0 0.00 0.00 0.00 84 1003.9
20260509075410 54 228 1.0 2.0 0.00 0.00 0.00 84 1004.0
20260509074907 54 230 3.0 3.0 0.00 0.00 0.00 84 1004.0
20260509074405 55 225 4.0 6.0 0.00 0.00 0.00 83 1004.0
20260509073901 55 237 3.0 5.0 0.00 0.00 0.00 83 1004.3
20260509073358 55 215 5.0 6.0 0.00 0.00 0.00 83 1004.0
20260509072855 55 244 3.0 3.0 0.00 0.00 0.00 83 1004.3
20260509072351 55 235 3.0 3.0 0.00 0.00 0.00 82 1004.4
20260509071848 55 234 3.0 3.0 0.00 0.00 0.00 82 1004.4
20260509071345 55 239 5.0 6.0 0.00 0.00 0.00 82 1004.6
20260509070842 55 247 3.0 3.0 0.00 0.00 0.00 82 1004.6
20260509070339 55 254 3.0 5.0 0.00 0.00 0.00 82 1004.6
20260509065835 55 225 3.0 5.0 0.00 0.00 0.00 82 1004.6
20260509065331 55 207 4.0 6.0 0.00 0.00 0.00 82 1004.7
20260509064827 55 226 2.0 2.0 0.00 0.00 0.00 82 1004.9
20260509064325 55 225 4.0 5.0 0.00 0.00 0.00 82 1004.6
20260509063822 55 228 4.0 5.0 0.00 0.00 0.00 82 1004.7
20260509063318 55 231 2.0 2.0 0.00 0.00 0.00 82 1004.9
20260509062815 55 217 4.0 5.0 0.00 0.00 0.00 82 1004.8
20260509062312 56 232 3.0 3.0 0.00 0.00 0.00 82 1004.9
20260509061810 56 210 4.0 6.0 0.00 0.00 0.00 82 1005.1
20260509061308 56 187 3.0 3.0 0.00 0.00 0.00 82 1005.0
20260509060804 56 236 3.0 6.0 0.00 0.00 0.00 82 1005.2
20260509060301 56 238 4.0 5.0 0.00 0.00 0.00 82 1005.3
20260509055757 56 204 5.0 7.0 0.00 0.00 0.00 81 1005.3
20260509055253 56 224 2.0 3.0 0.00 0.00 0.00 81 1005.0
20260509054750 56 270 4.0 5.0 0.00 0.00 0.00 81 1005.4
20260509054247 56 247 3.0 5.0 0.00 0.00 0.00 81 1005.1
20260509053745 56 259 3.0 3.0 0.00 0.00 0.00 81 1005.3
20260509053242 57 221 2.0 2.0 0.00 0.00 0.00 81 1005.0
20260509052740 57 238 4.0 6.0 0.00 0.00 0.00 80 1005.1
20260509052237 57 225 5.0 6.0 0.00 0.00 0.00 80 1005.2
20260509051735 57 232 5.0 7.0 0.00 0.00 0.00 80 1005.2
20260509051233 57 241 5.0 8.0 0.00 0.00 0.00 79 1005.2
20260509050729 57 230 5.0 6.0 0.00 0.00 0.00 79 1005.4
20260509050225 57 248 4.0 5.0 0.00 0.00 0.00 78 1005.2
20260509045722 57 248 4.0 6.0 0.00 0.00 0.00 78 1005.1
20260509045219 57 228 7.0 9.0 0.00 0.00 0.00 78 1005.3
20260509044716 57 225 4.0 6.0 0.00 0.00 0.00 77 1005.4
20260509044214 57 227 4.0 5.0 0.00 0.00 0.00 77 1005.5
20260509043710 58 195 4.0 6.0 0.00 0.00 0.00 76 1005.4
20260509043206 58 239 3.0 3.0 0.00 0.00 0.00 76 1005.2
20260509042703 58 186 6.0 8.0 0.00 0.00 0.00 75 1005.3
20260509042158 58 213 3.0 5.0 0.00 0.00 0.00 74 1005.6
20260509041655 58 242 8.0 9.0 0.00 0.00 0.00 74 1005.4
20260509041153 58 235 5.0 7.0 0.00 0.00 0.00 73 1005.4
20260509040651 58 215 3.0 5.0 0.00 0.00 0.00 72 1005.5
20260509040148 59 216 5.0 6.0 0.00 0.00 0.00 72 1005.6
20260509035644 59 241 5.0 6.0 0.00 0.00 0.00 71 1005.5
20260509035141 59 222 2.0 2.0 0.00 0.00 0.00 71 1005.8
20260509034639 59 208 4.0 6.0 0.00 0.00 0.00 71 1005.4
20260509034136 59 200 5.0 7.0 0.00 0.00 0.00 71 1005.5
20260509033633 58 233 2.0 3.0 0.00 0.00 0.00 72 1005.8
20260509033130 58 235 2.0 2.0 0.00 0.00 0.00 72 1005.6
20260509032627 58 216 3.0 5.0 0.00 0.00 0.00 72 1005.4
20260509032124 58 194 5.0 6.0 0.00 0.00 0.00 71 1005.5
20260509031622 58 238 2.0 2.0 0.00 0.00 0.00 71 1005.8
20260509031119 57 195 3.0 3.0 0.00 0.00 0.00 71 1005.4
20260509030617 57 172 2.0 3.0 0.00 0.00 0.00 72 1005.5
20260509030114 57 188 6.0 8.0 0.00 0.00 0.00 72 1005.6
20260509025610 57 189 3.0 5.0 0.00 0.00 0.00 71 1005.4
20260509025106 57 213 4.0 5.0 0.00 0.00 0.00 71 1005.9
20260509024601 57 154 2.0 2.0 0.00 0.00 0.00 70 1005.9
20260509024058 57 207 4.0 5.0 0.00 0.00 0.00 70 1005.8
20260509023556 57 176 4.0 5.0 0.00 0.00 0.00 69 1006.0
20260509023052 57 175 4.0 6.0 0.00 0.00 0.00 68 1005.9
20260509022548 57 173 2.0 3.0 0.00 0.00 0.00 68 1006.0
20260509022047 57 199 3.0 5.0 0.00 0.00 0.00 67 1005.9
20260509021543 57 195 4.0 6.0 0.00 0.00 0.00 67 1006.0
20260509021040 57 171 4.0 5.0 0.00 0.00 0.00 66 1005.8
20260509020539 57 211 1.0 2.0 0.00 0.00 0.00 66 1005.6
20260509020035 57 194 3.0 3.0 0.00 0.00 0.00 66 1005.6
20260509015534 57 186 2.0 2.0 0.00 0.00 0.00 65 1005.6
20260509015031 57 225 1.0 1.0 0.00 0.00 0.00 65 1005.5
20260509014528 57 199 2.0 2.0 0.00 0.00 0.00 65 1005.6
20260509014025 56 203 3.0 3.0 0.00 0.00 0.00 65 1005.6
20260509013522 56 200 2.0 2.0 0.00 0.00 0.00 65 1005.8
20260509013017 56 186 6.0 7.0 0.00 0.00 0.00 65 1005.9
20260509012514 56 170 5.0 8.0 0.00 0.00 0.00 65 1005.9
20260509012011 57 183 5.0 6.0 0.00 0.00 0.00 65 1005.6
20260509011509 57 190 2.0 2.0 0.00 0.00 0.00 65 1005.4
20260509011006 57 188 3.0 5.0 0.00 0.00 0.00 64 1005.5
20260509010504 57 163 4.0 7.0 0.00 0.00 0.00 64 1005.5
20260509010000 57 189 3.0 5.0 0.00 0.00 0.00 64 1005.8
20260509005458 57 103 4.0 5.0 0.00 0.00 0.00 63 1005.6
20260509004957 57 131 3.0 5.0 0.00 0.00 0.00 62 1005.5
20260509004454 57 181 2.0 3.0 0.00 0.00 0.00 62 1005.6
20260509003952 58 220 4.0 6.0 0.00 0.00 0.00 62 1005.8
20260509003450 58 190 3.0 3.0 0.00 0.00 0.00 61 1005.8
20260509002946 58 188 4.0 5.0 0.00 0.00 0.00 61 1005.5
20260509002444 58 193 2.0 2.0 0.00 0.00 0.00 61 1005.9
20260509001941 58 149 4.0 6.0 0.00 0.00 0.00 60 1005.9
20260509001438 58 209 3.0 5.0 0.00 0.00 0.00 61 1005.8
20260509000935 59 184 1.0 2.0 0.00 0.00 0.00 61 1005.8
20260509000433 60 200 1.0 2.0 0.00 0.00 0.00 60 1006.0
20260508235928 60 197 2.0 2.0 0.00 0.00 0.00 60 1006.0
20260508235426 60 217 3.0 3.0 0.00 0.00 0.00 59 1006.0
20260508234922 61 240 0.0 0.0 0.00 0.00 0.00 59 1006.0
20260508234420 61 248 0.0 1.0 0.00 0.00 0.00 59 1005.8
20260508233917 61 170 2.0 2.0 0.00 0.00 0.00 59 1005.8
20260508233417 61 176 2.0 2.0 0.00 0.00 0.00 59 1005.9
20260508232913 61 51 0.0 1.0 0.00 0.00 0.00 59 1005.9
20260508232410 62 255 0.0 0.0 0.00 0.00 0.00 58 1006.1
20260508231908 61 166 1.0 1.0 0.00 0.00 0.00 59 1006.0
20260508231404 62 174 2.0 2.0 0.00 0.00 0.00 59 1006.2
20260508230901 62 190 2.0 2.0 0.00 0.00 0.00 59 1005.8
20260508230358 61 106 0.0 1.0 0.00 0.00 0.00 59 1005.9
20260508225855 62 230 0.0 0.0 0.00 0.00 0.00 59 1006.1
20260508225351 62 175 2.0 3.0 0.00 0.00 0.00 58 1006.0
20260508224849 62 178 2.0 3.0 0.00 0.00 0.00 58 1006.4
20260508224347 61 218 1.0 1.0 0.00 0.00 0.00 59 1006.2
20260508223844 62 241 1.0 1.0 0.00 0.00 0.00 58 1006.2
20260508223341 63 213 1.0 1.0 0.00 0.00 0.00 58 1006.2
20260508222839 62 241 2.0 3.0 0.00 0.00 0.00 59 1006.3
20260508222336 61 168 4.0 6.0 0.00 0.00 0.00 61 1006.3
20260508221832 62 204 2.0 2.0 0.00 0.00 0.00 60 1006.2
20260508221328 62 60 1.0 1.0 0.00 0.00 0.00 60 1006.4
20260508220825 61 100 1.0 1.0 0.00 0.00 0.00 60 1006.2
20260508220321 60 79 3.0 3.0 0.00 0.00 0.00 62 1006.4
20260508215818 60 49 5.0 7.0 0.00 0.00 0.00 62 1006.5
20260508215314 61 29 3.0 3.0 0.00 0.00 0.00 62 1006.6
20260508214811 61 47 1.0 2.0 0.00 0.00 0.00 62 1006.4
20260508214308 61 72 3.0 5.0 0.00 0.00 0.00 63 1006.5
20260508213805 63 87 3.0 6.0 0.00 0.00 0.00 60 1006.5
20260508213302 63 83 2.0 2.0 0.00 0.00 0.00 60 1006.6
20260508212758 61 71 2.0 3.0 0.00 0.00 0.00 62 1006.6
20260508212254 62 30 3.0 3.0 0.00 0.00 0.00 62 1006.6
20260508211750 62 24 2.0 2.0 0.00 0.00 0.00 61 1006.5
20260508211246 61 106 3.0 5.0 0.00 0.00 0.00 63 1006.4
20260508210744 61 34 4.0 6.0 0.00 0.00 0.00 62 1006.8
20260508210241 62 27 4.0 6.0 0.00 0.00 0.00 62 1006.4
20260508205737 61 29 3.0 5.0 0.00 0.00 0.00 64 1006.7
20260508205234 62 42 5.0 7.0 0.00 0.00 0.00 62 1006.7
20260508204730 64 75 5.0 7.0 0.00 0.00 0.00 59 1006.8
20260508204227 65 48 3.0 3.0 0.00 0.00 0.00 58 1006.7
20260508203723 63 169 3.0 3.0 0.00 0.00 0.00 61 1006.9
20260508203219 64 172 9.0 11.0 0.00 0.00 0.00 61 1006.9
20260508202715 64 191 5.0 7.0 0.00 0.00 0.00 58 1007.0
20260508202213 64 145 3.0 3.0 0.00 0.00 0.00 57 1007.0
20260508201709 66 303 1.0 1.0 0.00 0.00 0.00 55 1007.2
20260508201206 66 171 4.0 7.0 0.00 0.00 0.00 52 1007.1
20260508200703 66 171 3.0 3.0 0.00 0.00 0.00 52 1007.3
20260508200159 64 53 1.0 1.0 0.00 0.00 0.00 54 1007.5
20260508195656 64 347 0.0 1.0 0.00 0.00 0.00 53 1007.5
20260508195152 63 201 3.0 3.0 0.00 0.00 0.00 54 1007.4
20260508194649 63 68 3.0 5.0 0.00 0.00 0.00 56 1007.6
20260508194146 65 50 4.0 5.0 0.00 0.00 0.00 54 1007.6
20260508193642 63 65 4.0 6.0 0.00 0.00 0.00 54 1007.8
20260508193139 63 92 4.0 6.0 0.00 0.00 0.00 53 1007.6
20260508192636 64 60 5.0 6.0 0.00 0.00 0.00 52 1007.8
20260508192133 64 69 3.0 5.0 0.00 0.00 0.00 52 1007.8
20260508191630 64 112 4.0 5.0 0.00 0.00 0.00 54 1008.0
20260508191126 64 314 1.0 2.0 0.00 0.00 0.00 53 1008.1
20260508190624 63 174 1.0 2.0 0.00 0.00 0.00 55 1008.1
20260508190120 63 75 4.0 5.0 0.00 0.00 0.00 56 1008.0
20260508185617 63 40 5.0 7.0 0.00 0.00 0.00 58 1008.0
20260508185115 63 60 3.0 5.0 0.00 0.00 0.00 55 1008.2
20260508184612 64 64 4.0 7.0 0.00 0.00 0.00 54 1008.2
20260508184109 65 144 1.0 2.0 0.00 0.00 0.00 53 1008.3
20260508183605 64 271 1.0 2.0 0.00 0.00 0.00 52 1008.3
20260508183101 64 55 4.0 6.0 0.00 0.00 0.00 51 1008.4
20260508182558 64 173 3.0 3.0 0.00 0.00 0.00 51 1008.7
20260508182055 63 84 3.0 3.0 0.00 0.00 0.00 51 1008.5
20260508181550 62 121 4.0 5.0 0.00 0.00 0.00 52 1008.2
20260508181048 62 78 4.0 5.0 0.00 0.00 0.00 50 1008.5
20260508180544 65 125 3.0 6.0 0.00 0.00 0.00 47 1008.5
20260508180041 64 203 3.0 6.0 0.00 0.00 0.00 46 1008.4
20260508175538 64 356 2.0 3.0 0.00 0.00 0.00 47 1008.8
20260508175035 63 232 2.0 2.0 0.00 0.00 0.00 48 1009.0
20260508174533 64 19 2.0 3.0 0.00 0.00 0.00 47 1008.9
20260508174029 64 115 4.0 6.0 0.00 0.00 0.00 47 1009.2
20260508173526 65 291 1.0 1.0 0.00 0.00 0.00 45 1009.3
20260508173022 64 193 1.0 2.0 0.00 0.00 0.00 46 1009.2
20260508172519 64 196 2.0 3.0 0.00 0.00 0.00 41 1009.3
20260508172016 64 84 4.0 6.0 0.00 0.00 0.00 40 1009.4
20260508171512 64 171 2.0 5.0 0.00 0.00 0.00 39 1009.5
20260508171009 64 154 4.0 5.0 0.00 0.00 0.00 42 1009.4
20260508170506 64 49 3.0 3.0 0.00 0.00 0.00 39 1009.5
20260508170004 64 185 1.0 2.0 0.00 0.00 0.00 34 1009.6
20260508165501 63 66 4.0 6.0 0.00 0.00 0.00 34 1009.7
20260508164956 63 34 1.0 1.0 0.00 0.00 0.00 35 1009.8
20260508164454 64 17 2.0 2.0 0.00 0.00 0.00 33 1009.9
20260508163950 63 131 1.0 1.0 0.00 0.00 0.00 34 1009.8
20260508163448 61 113 5.0 6.0 0.00 0.00 0.00 38 1010.2
20260508162944 62 168 4.0 6.0 0.00 0.00 0.00 45 1010.1
20260508162442 63 201 4.0 5.0 0.00 0.00 0.00 46 1010.1
20260508161938 63 338 1.0 1.0 0.00 0.00 0.00 45 1010.2
20260508161435 63 178 6.0 8.0 0.00 0.00 0.00 42 1010.1
20260508160932 63 178 4.0 5.0 0.00 0.00 0.00 48 1010.1
20260508160431 60 199 3.0 3.0 0.00 0.00 0.00 52 1010.2
20260508155927 63 134 3.0 3.0 0.00 0.00 0.00 50 1010.2
20260508155424 63 29 1.0 1.0 0.00 0.00 0.00 48 1010.3
20260508154921 62 262 1.0 1.0 0.00 0.00 0.00 48 1010.2
20260508154419 61 222 2.0 2.0 0.00 0.00 0.00 49 1010.3
20260508153915 61 223 2.0 2.0 0.00 0.00 0.00 51 1010.5
20260508153412 61 203 1.0 2.0 0.00 0.00 0.00 49 1010.5
20260508152908 61 215 4.0 5.0 0.00 0.00 0.00 52 1010.7
20260508152405 61 355 0.0 0.0 0.00 0.00 0.00 55 1010.4
20260508151902 61 213 2.0 2.0 0.00 0.00 0.00 55 1010.7
20260508151359 62 151 3.0 3.0 0.00 0.00 0.00 50 1010.7
20260508150855 60 302 2.0 2.0 0.00 0.00 0.00 55 1010.7
20260508150352 60 247 2.0 2.0 0.00 0.00 0.00 55 1011.0
20260508145848 60 191 2.0 2.0 0.00 0.00 0.00 55 1010.6
20260508145344 60 194 2.0 3.0 0.00 0.00 0.00 55 1010.5
20260508144841 58 235 1.0 1.0 0.00 0.00 0.00 57 1010.8
20260508144339 59 176 2.0 3.0 0.00 0.00 0.00 57 1010.6
20260508143836 58 199 2.0 3.0 0.00 0.00 0.00 59 1010.8
20260508143333 57 203 5.0 6.0 0.00 0.00 0.00 62 1010.8
20260508142830 57 213 3.0 5.0 0.00 0.00 0.00 62 1010.8
20260508142327 57 30 3.0 3.0 0.00 0.00 0.00 61 1010.7
20260508141823 55 209 3.0 3.0 0.00 0.00 0.00 63 1010.8
20260508141320 56 184 1.0 2.0 0.00 0.00 0.00 66 1011.0
20260508140817 56 218 2.0 3.0 0.00 0.00 0.00 67 1010.7
20260508140314 56 186 0.0 0.0 0.00 0.00 0.00 68 1010.8
20260508135810 56 172 2.0 2.0 0.00 0.00 0.00 68 1010.7
20260508135307 56 139 0.0 0.0 0.00 0.00 0.00 70 1010.7
20260508134803 56 161 1.0 1.0 0.00 0.00 0.00 70 1010.8
20260508134300 54 190 2.0 2.0 0.00 0.00 0.00 72 1010.7
20260508133756 54 179 1.0 1.0 0.00 0.00 0.00 72 1010.6
20260508133253 53 147 1.0 1.0 0.00 0.00 0.00 73 1010.6
20260508132751 53 149 2.0 2.0 0.00 0.00 0.00 73 1010.8
20260508132248 53 220 0.0 1.0 0.00 0.00 0.00 74 1010.9
20260508131744 53 173 1.0 2.0 0.00 0.00 0.00 75 1010.7
20260508131240 52 208 2.0 2.0 0.00 0.00 0.00 78 1010.6
20260508130737 51 246 0.0 0.0 0.00 0.00 0.00 80 1010.7
20260508130234 51 229 1.0 1.0 0.00 0.00 0.00 80 1011.0
20260508125729 51 216 2.0 2.0 0.00 0.00 0.00 80 1011.4
20260508125226 51 287 0.0 0.0 0.00 0.00 0.00 81 1010.9
20260508124725 50 291 0.0 1.0 0.00 0.00 0.00 83 1011.2
20260508124221 50 293 0.0 0.0 0.00 0.00 0.00 83 1011.0
20260508123720 50 292 0.0 0.0 0.00 0.00 0.00 83 1010.9
20260508123217 50 292 0.0 0.0 0.00 0.00 0.00 84 1011.0
20260508122713 49 292 0.0 0.0 0.00 0.00 0.00 84 1010.8
20260508122210 49 292 0.0 0.0 0.00 0.00 0.00 84 1011.0
20260508121708 49 292 0.0 0.0 0.00 0.00 0.00 84 1011.0
20260508121206 49 292 0.0 0.0 0.00 0.00 0.00 85 1011.2
20260508120703 49 292 0.0 0.0 0.00 0.00 0.00 85 1011.1
20260508120201 48 291 0.0 0.0 0.00 0.00 0.00 85 1011.0
20260508115659 48 297 0.0 0.0 0.00 0.00 0.00 86 1011.1
20260508115155 48 295 0.0 0.0 0.00 0.00 0.00 86 1010.8
20260508114652 48 299 0.0 0.0 0.00 0.00 0.00 86 1010.9
20260508114149 48 292 0.0 0.0 0.00 0.00 0.00 87 1010.8
20260508113646 47 292 0.0 0.0 0.00 0.00 0.00 87 1010.8
20260508113144 47 292 0.0 0.0 0.00 0.00 0.00 87 1010.7
20260508112640 46 292 0.0 0.0 0.00 0.00 0.00 88 1010.8